ONEWEB-0143, 47289

Orbit data source: Space-Track

ONEWEB-0143, 47289 is a payload satellite owned by One Web (UK) in LEO that was launched on Fri, 18 Dec 2020 UTC via a SOYUZ-2-1B launch vehicle from the Vostochny Cosmodrome (VOSTO). Payload-class satellites include a variety of spacecraft equipped with specific instruments for various scientific and technological missions. These include communications satellites like Starlink; space stations such as the ISS; scientific satellites like the Hubble; Earth observation satellites from companies like Planet Labs, Umbra, and HawkEye 360; GPS; miniature CubeSats for education and research; and military/defense satellites.

Loading next visibility...
Identifier
47289, 2020-100AH
Orbit
LEO
Country
Flag of UKUK
Related business
Manufacturer
One Web
Mission
Operational Commercial Communications
Bus & Motor
ARROW, Unknown motor
Mass
148 kg wet, ~140 kg dry
Launch date (UTC)
2020-12-18 (5 years ago)
Launch vehicle
SOYUZ-2-1B
Launch site
Vostochny Cosmodrome (VOSTO)
Object type
Payload
Rocket body
Debris
Shape & HBR
Trap Box + 2 Pan, 6.7 m
Radar Cross Section
3.464 m², Large (>1 m²)

Expand to show TLE details & history
Last TLE update: 7 hours ago

TLE from 7 hours ago
0 ONEWEB-0143
1 47289U 20100AH  26095.43589469  .00000415  00000-0  11184-2 0  9990
2 47289  87.9016   5.1141 0001754  77.9603 282.1722 13.12441707255101
Epoch: 2026-04-05T10:27Z
TLE epoch observation values (Epoch: 2026-04-05T10:27:41.301Z)
Latitude
-0.00001°
Longitude
14.45066°
Altitude
1,216.338 km
Speed
7.246 km/s
True Right ascension
00h 20m 27s
True Declination
0° 00' 00"
Sunlit
Object was in daylight at epoch
Visualization orbit readout
Latitude
Unknown
Longitude
Unknown
Altitude
Unknown
Speed
Unknown
Apparent Right ascension
Unknown
Apparent Declination
Unknown
Sunlit
N/A
Visualization observer readout
Local Sidereal Time
22:55:01
Azimuth
Unknown
Elevation
Unknown
Doppler factor
Unknown
Orbital elements
Apogee altitude
1,212.176 km
Perigee altitude
1,209.514 km
Semi-major axis
7,588.982 km
Eccentricity
0.00018
Inclination
87.9016°
RAAN
5.1141°
Arg. of periapsis
77.9603°
True anomaly
282.15255°
Mean anomaly
282.1722°
Eccentric anomaly
282.16238°
Mean motion
3.28298 °/min
Orbital period
109.66 mins
BSTAR
0.0011184
Loading maneuver chart data...
Computing Atmospheric mass density...
Loading historical data...
Loading historical data...
Loading historical data...
Loading historical data...
Loading historical data...
Loading historical data...
Loading historical data...

Documentation

Showing up to 5 results
|